User: anonymous   Login
Location: Newark
(7.0858°N, 171.3717°E)
Time: 10:20:12
(UTC+00:00)
Language:

CUTE-I - Orbit

View from above orbital plane
View from above orbital plane
View from above satellite
View from above satellite

Ground track
Ground track

The orbit data is extracted from the following two-line orbital elements,

1 27844U 03031E   19291.43547748 +.00000037 +00000-0 +36200-4 0  9991
2 27844 098.6854 297.8343 0010577 043.6896 316.5118 14.22199895845551
Epoch (UTC): 18 October 2019 10:27:05
Eccentricity: 0.0010577
inclination: 98.6854°
perigee height: 810 km
apogee height: 825 km
right ascension of ascending node: 297.8343°
argument of perigee: 43.6896°
revolutions per day: 14.22199895
mean anomaly at epoch: 316.5118°
orbit number at epoch: 84555

The dashed part of the orbit path shows where the satellite is in the earth's shadow,  

DLR